Weather History for Alamosa, CO

Change the Weather History Date:

Monday, April 22, 2013

  Actual Average Record
Temperature  
Mean Temperature 44 °F 44 °F  
Max Temperature 67 °F 61 °F 77 °F (2006)
Min Temperature 20 °F 26 °F 14 °F (2002)
Degree Days  
Heating Degree Days 21 21  
Month to date heating degree days 541 536  
Since 1 July heating degree days 8287 7842  
Cooling Degree Days 0 0  
Month to date cooling degree days 0 0  
Year to date cooling degree days 0 0  
Moisture  
Dew Point 16 °F    
Average Humidity 43    
Maximum Humidity 73    
Minimum Humidity 12    
Precipitation  
Precipitation 0.00 in 0.03 in 0.19 in (1995)
Month to date precipitation 0.33 0.43  
Year to date precipitation 0.89 1.48  
Snow  
Snow 0.00 in 0.10 in 2.00 in (1941)
Month to date snowfall 2.2 2.8  
Since 1 July snowfall 21.1 25.9  
Snow Depth 0.00 in    
Sea Level Pressure  
Sea Level Pressure 29.85 in    
Wind  
Wind Speed 12 mph (SW)    
Max Wind Speed 32 mph    
Max Gust Speed 43 mph    
Visibility 10 miles    
Events      
T = Trace of Precipitation, MM = Missing Value Source: NWS Daily Summary

Daily Weather History Graph

Daily Weather History Graph

Search for Another Location

Airport:

Trip Planner

Search our weather history database for the weather conditions in past years. The results will help you decide how hot, cold, wet, or windy it might be!

Date:

Astronomy

Apr. 22, 2013 Rise Set
Actual Time 6:18 AM MDT 7:45 PM MDT
Civil Twilight 5:51 AM MDT 8:12 PM MDT
Nautical Twilight 5:18 AM MDT 8:45 PM MDT
Astronomical Twilight 4:44 AM MDT 9:20 PM MDT
Moon 4:40 PM MDT (4/22) 4:10 AM MDT (4/22)
Length of Visible Light 14h 21m
Length of Day
13h 26m
Waxing Gibbous, 88% of the Moon is Illuminated
Apr 22
Waxing Gibbous
Apr 25
Full
May 2
Last Quarter
May 9
New
May 17
First Quarter

Hourly Weather History & Observations

Time (MDT) Temp. Windchill Dew Point Humidity Pressure Visibility Wind Dir Wind Speed Gust Speed Precip Events Conditions
12:52 AM 28.9 °F 25.2 °F 10.9 °F 47% 29.99 in 10.0 mi South 3.5 mph - N/A   Clear
1:52 AM 30.0 °F 26.5 °F 10.0 °F 43% 29.96 in 10.0 mi WSW 3.5 mph - N/A   Clear
2:52 AM 27.0 °F - 10.0 °F 49% 29.95 in 10.0 mi Calm Calm - N/A   Partly Cloudy
3:52 AM 24.1 °F 19.7 °F 10.0 °F 55% 29.95 in 10.0 mi SE 3.5 mph - N/A   Clear
4:52 AM 19.9 °F 12.1 °F 12.0 °F 71% 29.97 in 10.0 mi SE 5.8 mph - N/A   Clear
5:52 AM 21.9 °F 14.5 °F 10.9 °F 63% 29.98 in 10.0 mi WSW 5.8 mph - N/A   Clear
6:52 AM 24.1 °F 19.7 °F 14.0 °F 65% 29.97 in 10.0 mi WSW 3.5 mph - N/A   Clear
7:52 AM 37.9 °F - 26.1 °F 62% 29.93 in 10.0 mi Calm Calm - N/A   Clear
8:52 AM 46.0 °F 41.4 °F 30.0 °F 54% 29.91 in 10.0 mi NE 9.2 mph - N/A   Clear
9:52 AM 48.9 °F - 28.0 °F 44% 29.88 in 10.0 mi East 8.1 mph - N/A   Clear
10:52 AM 53.1 °F - 24.1 °F 32% 29.87 in 10.0 mi Calm Calm - N/A   Clear
11:52 AM 57.9 °F - 21.0 °F 24% 29.84 in 10.0 mi NNW 6.9 mph - N/A   Clear
12:52 PM 64.0 °F - 14.0 °F 14% 29.80 in 10.0 mi West 15.0 mph 35.7 mph N/A   Partly Cloudy
1:52 PM 64.9 °F - 14.0 °F 14% 29.77 in 10.0 mi West 29.9 mph 34.5 mph N/A   Partly Cloudy
2:52 PM 66.0 °F - 15.1 °F 14% 29.76 in 10.0 mi WSW 25.3 mph 31.1 mph N/A   Scattered Clouds
3:52 PM 66.9 °F - 12.9 °F 12% 29.75 in 10.0 mi WSW 25.3 mph 42.6 mph N/A   Partly Cloudy
4:52 PM 66.0 °F - 12.0 °F 12% 29.76 in 10.0 mi WSW 23.0 mph 36.8 mph N/A   Clear
5:52 PM 64.0 °F - 10.0 °F 12% 29.76 in 10.0 mi WSW 24.2 mph 41.4 mph N/A   Clear
6:52 PM 61.0 °F - 8.1 °F 12% 29.75 in 10.0 mi West 25.3 mph 33.4 mph N/A   Clear
7:52 PM 55.9 °F - 10.0 °F 16% 29.72 in 10.0 mi WSW 13.8 mph 23.0 mph N/A   Clear
8:52 PM 39.0 °F 31.4 °F 21.0 °F 49% 29.79 in 10.0 mi ESE 12.7 mph 20.7 mph N/A   Clear
9:52 PM 36.0 °F 27.1 °F 21.0 °F 55% 29.79 in 10.0 mi ESE 13.8 mph 24.2 mph N/A   Clear
10:52 PM 35.1 °F 27.4 °F 19.0 °F 52% 29.79 in 10.0 mi SE 10.4 mph - N/A   Scattered Clouds
11:52 PM 32.0 °F 23.0 °F 17.1 °F 54% 29.76 in 8.0 mi SSE 11.5 mph - N/A   Partly Cloudy